Location: Eschertshofen
(49.3064°N, 11.5756°E)
Time: 16:05:43
(UTC+00:00)

USA 234 - Pass Details

Date: 18 September 2020
Orbit: 1102 x 1106 km, 123.0° (Epoch: 16 October)

Event Time Altitude Azimuth Distance (km) Brightness Sun altitude
Rises 21:59:00 0° 65° (ENE) 3,925 6.2 -37.2°
Reaches altitude 10° 22:01:32 10° 60° (ENE) 2,966 5.6 -37.3°
Enters shadow 22:03:22 20° 54° (NE) 2,319 5.0 -37.4°
Exits shadow 22:06:55 47° 13° (NNE) 1,423 4.0 -37.6°
Maximum altitude 22:07:48 51° 348° (NNW) 1,371 3.9 -37.7°
Drops below altitude 10° 22:14:04 10° 275° (W) 2,965 5.7 -38.0°
Sets 22:16:37 0° 270° (W) 3,922 6.3 -38.1°
